[[{"header":{"parameterUnit":"m.s-1","parameterCategory":2,"la1":30.2991,"la2":30.254,"lo1":-89.0895,"lo2":-89.0444,"dy":0.0017,"dx":0.0017,"nx":28,"ny":28,"refTime":"2023-09-01T09:00:00:Z","depth":"0","parameterNumber":2,"parameterNumberName":"U-component_of_CURRENTS"},"data":[0,0,0,0,0,0,0,0,0,0,0,0,0,0,0,0,0,0,0,0,0,0,0,0,0,0,0,0,0,0,0,0,0,0,0,0,0,0,0,0,0,0,0,0,0,0,0,0,0,0,0,0,0,0,0,0,0,0,0.1678,0.1678,0,0.1698,0.1698,0.1699,0.1707,0.1707,0.1708,0.1708,0.1724,0.1724,0.1725,0,0,0,0,0,0,0,0,0,0,0,0,0,0.1649,0.1649,0.1678,0.1678,0.1679,0.1698,0.1698,0.1699,0.1707,0.1707,0.1708,0.1708,0.1724,0.1724,0.1725,0,0,0,0,0,0,0,0,0,0,0,0,0,0.1663,0.1649,0.1678,0.1686,0.1687,0.1698,0.1698,0.1699,0.1707,0.1707,0.1708,0.1708,0.1724,0.1724,0.1725,0.1725,0,0,0.1726,0.1727,0,0,0,0,0,0,0,0,0.1662,0.1664,0.1685,0.1686,0.1687,0.1702,0.1694,0.1708,0.1707,0.1698,0.1708,0.1708,0.1717,0.1718,0.172,0.1726,0.1727,0.1727,0.1727,0.1727,0.1727,0,0,0,0,0,0,0,0.1661,0.1663,0.1684,0.1685,0.1687,0.169,0.1692,0.1697,0.1705,0.1699,0.17,0.1705,0.1718,0.1719,0.172,0.1727,0.1727,0.1727,0.1727,0.1727,0.1759,0.1759,0,0,0,0,0,0,0.1661,0.1662,0.1684,0.1685,0.1676,0.1691,0.1693,0.1696,0.1705,0.1708,0.1705,0.1705,0.1718,0.172,0.1721,0.1747,0.1727,0.1728,0.1728,0.1758,0.1759,0.176,0,0,0,0,0,0,0.1661,0.1663,0.1683,0.1675,0.1678,0.1691,0.1694,0.1696,0.17,0.171,0.1712,0.1707,0.1718,0.172,0.173,0.1747,0.1728,0.1728,0.1758,0.1759,0.1759,0.1783,0,0,0,0,0,0,0.166,0.1663,0.1664,0.1675,0.1679,0.1694,0.1694,0.1696,0.1703,0.1704,0.1713,0.1714,0.1719,0.1729,0.173,0.1747,0.1729,0.1757,0.1758,0.1759,0.1782,0.1785,0.1788,0,0,0,0,0,0.1658,0.166,0.1664,0.1666,0.168,0.1694,0.1696,0.1705,0.1703,0.1708,0.1713,0.1714,0.1737,0.173,0.1731,0.1749,0.1757,0.1758,0.1759,0.1781,0.1784,0.1787,0,0,0,0,0,0,0.1648,0.1661,0.1666,0.1671,0.1684,0.1696,0.1701,0.1705,0.1712,0.1712,0.1717,0.172,0.1737,0.1736,0.1728,0.176,0.1748,0.175,0.1764,0.1768,0.177,0.1772,0.1729,0,0,0,0,0,0.1646,0.165,0.1666,0.167,0.1678,0.1688,0.1694,0.1701,0.171,0.1713,0.1719,0.1728,0.1742,0.1749,0.1758,0.1771,0.1786,0.1784,0.1787,0.1789,0.1791,0.1823,0.1829,0.1763,0.1763,0.1763,0,0,0.1641,0.1651,0.1652,0.1668,0.1678,0.1694,0.1692,0.1703,0.1717,0.1713,0.173,0.1737,0.1748,0.1767,0.1775,0.1769,0.1819,0.1791,0.1793,0.1793,0.1825,0.1831,0.1837,0.1764,0.1764,0.1764,0,0,0.164,0.1645,0.1651,0.1665,0.1683,0.1694,0.1698,0.1713,0.1721,0.1736,0.1742,0.1756,0.1772,0.1787,0.1796,0.1817,0.1833,0.1822,0.1838,0.1869,0.1875,0.188,0.1925,0.1933,0.1824,0.1824,0.1824,0,0.1636,0.1647,0.1655,0.167,0.1684,0.1695,0.1712,0.1723,0.1739,0.175,0.1745,0.178,0.1784,0.1818,0.1825,0.1825,0.1849,0.1825,0.1873,0.1878,0.1883,0.1928,0.1937,0.1825,0.1825,0.1825,0.1824,0,0.1644,0.1655,0.1661,0.1685,0.1701,0.1715,0.1737,0.1751,0.176,0.1774,0.1803,0.1812,0.1835,0.184,0.1838,0.1878,0.1888,0.1874,0.1866,0.1892,0.1937,0.1946,0.1827,0.1826,0.1826,0.1826,0,0,0.163,0.1661,0.1663,0.1679,0.1711,0.1724,0.1752,0.1783,0.1805,0.1819,0.185,0.1869,0.1875,0.1885,0.189,0.191,0.1966,0.1906,0.1907,0.1953,0.2052,0.2081,0.2094,0.1963,0.1964,0.1965,0.2076,0,0.1636,0.1662,0.1679,0.1708,0.1725,0.1751,0.1778,0.1806,0.183,0.1862,0.1878,0.1909,0.1894,0.1911,0.193,0.196,0.199,0.1938,0.2018,0.202,0.2045,0.2105,0.2079,0.2177,0.2085,0.2087,0.2088,0,0.1641,0.1658,0.1685,0.1723,0.1734,0.1753,0.1802,0.1827,0.1874,0.1897,0.1931,0.1949,0.1993,0.1967,0.2041,0.2011,0.2034,0.205,0.2054,0.2078,0.2067,0.2133,0.2198,0.2156,0.2103,0.2101,0.21,0,0.1627,0.1664,0.1684,0.1697,0.1742,0.1759,0.1784,0.1832,0.1871,0.1922,0.1965,0.2006,0.205,0.2075,0.2122,0.2085,0.2205,0.2158,0.2209,0.2212,0.2203,0.2203,0.2236,0.2207,0.2207,0.2206,0.2206,0,0.1628,0.1644,0.1676,0.1687,0.1714,0.1748,0.1787,0.182,0.189,0.1934,0.198,0.2038,0.2078,0.2151,0.216,0.2241,0.2246,0.2234,0.2248,0.2212,0.2212,0.2184,0.2152,0.221,0.2209,0.2209,0.2208,0,0.1608,0.1632,0.1652,0.1692,0.1706,0.172,0.1789,0.1825,0.1894,0.196,0.1986,0.2095,0.2192,0.2249,0.2317,0.2314,0.2316,0.2386,0.2355,0.2363,0.2339,0.231,0.2244,0.2171,0.2451,0.2452,0.2454,0,0.16,0.1608,0.1642,0.1655,0.1671,0.1703,0.1734,0.1811,0.1856,0.1987,0.2022,0.2159,0.2257,0.241,0.2437,0.2507,0.2391,0.2493,0.2404,0.236,0.2337,0.2189,0.2119,0.241,0.2411,0.2412,0.2412,0,0.1579,0.1588,0.1604,0.1627,0.1653,0.1684,0.1731,0.1781,0.1869,0.1953,0.2075,0.2178,0.2353,0.2438,0.2547,0.2561,0.2387,0.2507,0.2465,0.2322,0.2159,0.2088,0.2323,0.2418,0.2417,0.2417,0.2416,0.2416,0.1556,0.1557,0.1577,0.1596,0.1625,0.1655,0.1669,0.1746,0.183,0.1935,0.2055,0.2186,0.2365,0.2535,0.2536,0.2536,0.2446,0.2469,0.2446,0.2305,0.2199,0.2462,0.2563,0.2563,0.2564,0.2564,0.2564,0,0.1522,0.1531,0.1549,0.1565,0.1575,0.1606,0.166,0.1672,0.1748,0.1887,0.1999,0.2199,0.2338,0.2442,0.255,0.2495,0.2321,0.2424,0.2206,0.2144,0.2407,0.2372,0.2432,0.2433,0.2433,0.2433,0.2433,0.2433,0.1504,0.1503,0.1513,0.1508,0.1521,0.1513,0.1531,0.1572,0.1658,0.179,0.1911,0.2038,0.2288,0.2476,0.2498,0.2437,0.2225,0.2153,0.2082,0.2292,0.2293,0.2293,0.2252,0.2287,0.2287,0.1729,0.1725,0.1722]},{"header":{"parameterUnit":"m.s-1","parameterCategory":2,"la1":30.2991,"la2":30.254,"lo1":-89.0895,"lo2":-89.0444,"dy":0.0017,"dx":0.0017,"nx":28,"ny":28,"refTime":"2023-09-01T09:00:00:Z","depth":"0","parameterNumber":3,"parameterNumberName":"V-component_of_CURRENTS"},"data":[0,0,0,0,0,0,0,0,0,0,0,0,0,0,0,0,0,0,0,0,0,0,0,0,0,0,0,0,0,0,0,0,0,0,0,0,0,0,0,0,0,0,0,0,0,0,0,0,0,0,0,0,0,0,0,0,0,0,-0.0019,-0.0019,0,-0.0064,-0.0065,-0.0065,-0.0106,-0.0106,-0.0107,-0.0107,-0.0184,-0.0185,-0.0187,0,0,0,0,0,0,0,0,0,0,0,0,0,0.0014,0.0014,-0.0019,-0.0019,-0.002,-0.0064,-0.0065,-0.0066,-0.0106,-0.0106,-0.0107,-0.0107,-0.0183,-0.0185,-0.0187,0,0,0,0,0,0,0,0,0,0,0,0,0,-0.0013,0.0014,-0.0019,-0.0045,-0.0048,-0.0064,-0.0065,-0.0066,-0.0106,-0.0106,-0.0107,-0.0107,-0.0183,-0.0185,-0.0187,-0.019,0,0,-0.0195,-0.0196,0,0,0,0,0,0,0,0,-0.0011,-0.0014,-0.0041,-0.0043,-0.0046,-0.008,-0.0081,-0.0109,-0.0105,-0.0084,-0.0107,-0.0108,-0.0151,-0.0156,-0.0163,-0.0193,-0.0196,-0.0195,-0.0197,-0.0198,-0.0198,0,0,0,0,0,0,0,-0.0009,-0.0012,-0.0037,-0.0041,-0.0045,-0.0061,-0.0065,-0.0087,-0.0114,-0.0086,-0.0089,-0.0093,-0.0153,-0.0161,-0.0166,-0.0198,-0.0195,-0.0197,-0.0199,-0.02,-0.0241,-0.024,0,0,0,0,0,0,-0.0001,-0.001,-0.0036,-0.0039,-0.0029,-0.0061,-0.0066,-0.0069,-0.0113,-0.0121,-0.0092,-0.0095,-0.0156,-0.0163,-0.0168,-0.018,-0.0198,-0.02,-0.0201,-0.0241,-0.0241,-0.024,0,0,0,0,0,0,-0.0,-0.0003,-0.0034,-0.0025,-0.003,-0.006,-0.0063,-0.0069,-0.0078,-0.0118,-0.0126,-0.0096,-0.0157,-0.0165,-0.0185,-0.0184,-0.0201,-0.0203,-0.0241,-0.0241,-0.024,-0.02,0,0,0,0,0,0,0.0001,-0.0002,0.0001,-0.0025,-0.0031,-0.004,-0.0063,-0.007,-0.008,-0.0083,-0.0123,-0.0131,-0.0158,-0.0181,-0.0188,-0.0187,-0.0205,-0.0242,-0.0241,-0.0241,-0.0202,-0.0199,-0.0195,0,0,0,0,0,0.0003,0.001,0.0002,-0.0002,-0.0026,-0.004,-0.0044,-0.0068,-0.0079,-0.0079,-0.0107,-0.013,-0.0181,-0.0183,-0.0191,-0.0191,-0.0242,-0.0241,-0.0241,-0.0204,-0.0199,-0.0195,0,0,0,0,0,0,0.0027,0.0006,-0.0004,-0.0003,-0.0018,-0.0046,-0.0047,-0.0063,-0.0084,-0.0087,-0.0126,-0.0135,-0.0152,-0.0174,-0.0174,-0.0199,-0.0215,-0.0216,-0.0185,-0.0181,-0.0178,-0.017,-0.0207,0,0,0,0,0,0.0035,0.0034,0.0011,0.0013,0.0007,-0.0018,-0.0026,-0.0041,-0.0064,-0.0074,-0.0101,-0.0129,-0.0153,-0.0168,-0.019,-0.0204,-0.0225,-0.0209,-0.0205,-0.0202,-0.0201,-0.0232,-0.0231,-0.0237,-0.0237,-0.0237,0,0,0.0045,0.0034,0.0033,0.0018,0.0005,0.0001,-0.0024,-0.0032,-0.0036,-0.0078,-0.009,-0.0117,-0.0152,-0.0168,-0.0178,-0.0188,-0.0208,-0.0201,-0.0198,-0.0199,-0.0231,-0.023,-0.023,-0.0237,-0.0237,-0.0237,0,0,0.0065,0.0056,0.0061,0.0051,0.0035,0.002,0.002,-0.0004,-0.0016,-0.003,-0.0061,-0.0085,-0.0118,-0.0147,-0.0165,-0.0155,-0.0187,-0.016,-0.0143,-0.0172,-0.0172,-0.0173,-0.0185,-0.0187,-0.0162,-0.0162,-0.0162,0,0.0078,0.008,0.0061,0.0063,0.0059,0.0031,0.0036,0.0021,-0.0007,-0.0015,-0.0027,-0.0079,-0.0109,-0.0137,-0.0135,-0.0148,-0.0164,-0.0156,-0.0168,-0.0169,-0.017,-0.0183,-0.0186,-0.016,-0.016,-0.016,-0.0161,0,0.0099,0.0101,0.0105,0.0097,0.0091,0.0092,0.0069,0.0062,0.0045,0.0026,0.0001,-0.0041,-0.0073,-0.0087,-0.011,-0.0131,-0.0138,-0.0158,-0.0179,-0.0167,-0.0182,-0.0185,-0.0157,-0.0158,-0.0158,-0.0159,0,0,0.0126,0.012,0.0121,0.0126,0.0109,0.0108,0.0103,0.0089,0.0088,0.0055,0.0047,-0.0001,-0.0025,-0.0047,-0.0082,-0.0111,-0.0129,-0.0134,-0.0136,-0.0146,-0.0182,-0.0166,-0.0168,-0.0152,-0.0153,-0.0153,-0.0186,0,0.0149,0.0164,0.0151,0.0166,0.0173,0.0149,0.0148,0.0131,0.0113,0.01,0.005,0.0031,-0.001,-0.0022,-0.006,-0.0109,-0.0138,-0.0118,-0.0193,-0.0195,-0.0182,-0.0172,-0.0145,-0.017,-0.0189,-0.019,-0.019,0,0.0172,0.018,0.0198,0.0204,0.0205,0.0207,0.0203,0.0197,0.0168,0.0153,0.0117,0.0084,0.0037,0.0004,-0.0083,-0.0068,-0.012,-0.0162,-0.0165,-0.0167,-0.0185,-0.0188,-0.0175,-0.0309,-0.0195,-0.0195,-0.0195,0,0.0204,0.0214,0.0231,0.0232,0.0232,0.0236,0.0233,0.0213,0.0224,0.0187,0.0196,0.0123,0.0107,0.002,-0.0058,-0.0074,-0.0144,-0.018,-0.0216,-0.0215,-0.0216,-0.0214,-0.0342,-0.0242,-0.0242,-0.0242,-0.0242,0,0.0232,0.0248,0.0249,0.026,0.0285,0.0269,0.0293,0.0276,0.0275,0.0301,0.0227,0.0243,0.0112,0.0062,-0.0036,-0.0121,-0.0129,-0.0207,-0.0224,-0.0199,-0.0195,-0.033,-0.0404,-0.0243,-0.0243,-0.0243,-0.0243,0,0.0262,0.0261,0.0288,0.0296,0.0301,0.0318,0.0346,0.0369,0.0354,0.0387,0.0385,0.0339,0.0277,0.0155,0.003,-0.007,-0.0236,-0.0199,-0.0149,-0.0158,-0.0327,-0.0398,-0.0522,-0.0591,-0.0256,-0.0255,-0.0255,0,0.0278,0.0293,0.0319,0.0344,0.035,0.0377,0.0403,0.0403,0.0442,0.0461,0.0491,0.0449,0.0458,0.0282,0.0088,-0.0076,-0.0208,-0.0175,-0.021,-0.0329,-0.0421,-0.047,-0.0523,-0.0193,-0.0193,-0.0192,-0.0192,0,0.0315,0.0322,0.0345,0.0396,0.043,0.0476,0.0518,0.0569,0.0584,0.0633,0.0708,0.0724,0.0559,0.0413,0.0166,0.004,-0.0265,-0.0169,-0.0316,-0.04,-0.0438,-0.0513,-0.0173,-0.0187,-0.0187,-0.0188,-0.0188,-0.0188,0.0345,0.0373,0.0408,0.0458,0.0506,0.0581,0.0644,0.0718,0.081,0.0916,0.0898,0.0963,0.0706,0.0386,0.0168,-0.0214,-0.0232,-0.0328,-0.0407,-0.0447,-0.0511,-0.0146,-0.0165,-0.0165,-0.0165,-0.0166,-0.0166,0,0.0388,0.0421,0.0472,0.0541,0.0613,0.0623,0.073,0.0818,0.0966,0.1068,0.1162,0.11,0.0774,0.0409,-0.0107,-0.0399,-0.0523,-0.056,-0.0646,-0.0694,-0.0389,-0.0384,-0.0421,-0.0421,-0.0421,-0.0421,-0.0421,-0.0421,0.0415,0.0472,0.0499,0.0624,0.0681,0.0794,0.087,0.101,0.112,0.1292,0.1361,0.1385,0.1123,0.0179,-0.0496,-0.0662,-0.0881,-0.0907,-0.1042,-0.0857,-0.0842,-0.0828,-0.0843,-0.0975,-0.0976,-0.1306,-0.131,-0.1312]}],[{"header":{"parameterUnit":"m.s-1","parameterCategory":2,"la1":30.2991,"la2":30.254,"lo1":-89.0895,"lo2":-89.0444,"dy":0.0017,"dx":0.0017,"nx":28,"ny":28,"refTime":"2023-09-01T09:00:00:Z","depth":"2","parameterNumber":2,"parameterNumberName":"U-component_of_CURRENTS"},"data":[0,0,0,0,0,0,0,0,0,0,0,0,0,0,0,0,0,0,0,0,0,0,0,0,0,0,0,0,0,0,0,0,0,0,0,0,0,0,0,0,0,0,0,0,0,0,0,0,0,0,0,0,0,0,0,0,0,0,0.155,0.1551,0,0.1572,0.1572,0.1573,0.1591,0.1591,0.1592,0.1592,0.1617,0.1618,0.1618,0,0,0,0,0,0,0,0,0,0,0,0,0,0.1533,0.1533,0.155,0.1551,0.1551,0.1572,0.1572,0.1573,0.1591,0.1591,0.1592,0.1592,0.1617,0.1617,0.1618,0,0,0,0,0,0,0,0,0,0,0,0,0,0.1546,0.1533,0.155,0.1563,0.1564,0.1572,0.1572,0.1573,0.1591,0.1591,0.1592,0.1592,0.1617,0.1617,0.1618,0.1616,0,0,0.162,0.1621,0,0,0,0,0,0,0,0,0.1545,0.1547,0.1561,0.1562,0.1563,0.1579,0.1576,0.1587,0.1591,0.1581,0.1592,0.1592,0.1605,0.1606,0.161,0.1617,0.1618,0.162,0.1621,0.1621,0.1621,0,0,0,0,0,0,0,0.1544,0.1546,0.1559,0.1561,0.1563,0.157,0.1572,0.1578,0.1591,0.1582,0.1583,0.1586,0.1605,0.1609,0.161,0.1619,0.162,0.1621,0.1621,0.1622,0.1665,0.1665,0,0,0,0,0,0,0.1541,0.1545,0.1558,0.156,0.1555,0.157,0.1573,0.1574,0.159,0.1593,0.1585,0.1586,0.1607,0.1609,0.1611,0.1647,0.1621,0.1622,0.1622,0.1664,0.1665,0.1666,0,0,0,0,0,0,0.1541,0.1542,0.1557,0.1553,0.1555,0.157,0.1571,0.1574,0.1586,0.1593,0.1596,0.1595,0.1608,0.161,0.163,0.1647,0.1622,0.1623,0.1663,0.1664,0.1665,0.1695,0,0,0,0,0,0,0.154,0.1542,0.1547,0.1553,0.1556,0.157,0.1571,0.1574,0.1587,0.1588,0.1603,0.1605,0.1608,0.1629,0.1631,0.1647,0.1623,0.1662,0.1664,0.1665,0.1693,0.1697,0.17,0,0,0,0,0,0.1539,0.1542,0.1547,0.1549,0.156,0.1571,0.1573,0.1584,0.1587,0.1595,0.1608,0.1605,0.1639,0.1631,0.1632,0.1649,0.1662,0.1663,0.1665,0.1691,0.1696,0.17,0,0,0,0,0,0,0.1535,0.1545,0.155,0.1555,0.1567,0.1574,0.1582,0.1588,0.1604,0.1608,0.1614,0.1617,0.1641,0.164,0.163,0.1666,0.165,0.1652,0.167,0.1674,0.1677,0.168,0.1624,0,0,0,0,0,0.1537,0.1542,0.1553,0.1558,0.1564,0.1575,0.1582,0.1589,0.1601,0.1608,0.1618,0.1631,0.1647,0.1657,0.1667,0.1685,0.1694,0.1697,0.17,0.1703,0.1707,0.1736,0.1742,0.1671,0.1671,0.1671,0,0,0.1534,0.1542,0.1544,0.1558,0.1567,0.1581,0.158,0.1592,0.1608,0.1608,0.1633,0.1642,0.1654,0.1678,0.1688,0.1681,0.1731,0.1706,0.1708,0.171,0.1738,0.1745,0.1751,0.1672,0.1672,0.1672,0,0,0.1534,0.1542,0.155,0.1562,0.1579,0.1587,0.1592,0.1606,0.1619,0.1641,0.1649,0.1669,0.1689,0.1704,0.1713,0.1741,0.1748,0.1745,0.1768,0.1796,0.1802,0.1808,0.1838,0.1846,0.1749,0.1749,0.1749,0,0.1533,0.1544,0.1554,0.1568,0.1581,0.1591,0.1607,0.1621,0.1641,0.1656,0.1654,0.1696,0.1702,0.1739,0.1751,0.175,0.1769,0.1751,0.1801,0.1807,0.1812,0.1841,0.185,0.175,0.175,0.175,0.175,0,0.1542,0.1555,0.156,0.1584,0.16,0.1613,0.1635,0.1654,0.1669,0.1682,0.172,0.1733,0.1762,0.1766,0.1767,0.181,0.1813,0.1801,0.179,0.1821,0.185,0.1858,0.1753,0.1752,0.1751,0.1751,0,0,0.1528,0.156,0.1563,0.158,0.161,0.1624,0.1656,0.1688,0.1714,0.1734,0.1774,0.1796,0.1807,0.1818,0.1826,0.1846,0.1897,0.1842,0.1843,0.1873,0.197,0.1959,0.1967,0.1899,0.19,0.1901,0.1979,0,0.1533,0.1559,0.1578,0.1609,0.1625,0.1654,0.1683,0.1715,0.1743,0.1782,0.1805,0.184,0.1827,0.185,0.187,0.1896,0.192,0.1878,0.1935,0.1937,0.1924,0.1976,0.1834,0.189,0.1987,0.1988,0.1989,0,0.1536,0.1555,0.1583,0.1626,0.1638,0.166,0.1715,0.1744,0.1798,0.1824,0.1865,0.1886,0.1936,0.1911,0.1975,0.1953,0.1965,0.1974,0.1977,0.1961,0.1941,0.1873,0.1901,0.2003,0.2002,0.2001,0.2,0,0.1521,0.156,0.1584,0.1597,0.1645,0.1671,0.1701,0.1753,0.1795,0.1856,0.1901,0.1946,0.1995,0.2012,0.2043,0.2017,0.2108,0.2072,0.2072,0.2071,0.1958,0.1945,0.2108,0.2108,0.2108,0.2108,0.2108,0,0.1517,0.1536,0.1578,0.159,0.1625,0.1665,0.171,0.175,0.1824,0.1871,0.1923,0.1978,0.2025,0.2082,0.2078,0.2119,0.2142,0.2092,0.2096,0.1966,0.1953,0.2049,0.2041,0.2111,0.211,0.211,0.2109,0,0.1493,0.1521,0.1548,0.1598,0.1617,0.1642,0.1718,0.1752,0.1828,0.19,0.193,0.2036,0.2104,0.2147,0.2195,0.218,0.22,0.2201,0.2051,0.2036,0.2132,0.2125,0.2208,0.2208,0.2209,0.2209,0.2209,0,0.1484,0.1495,0.1544,0.1561,0.1583,0.1627,0.1657,0.174,0.1785,0.192,0.1956,0.2071,0.2121,0.2217,0.2219,0.2237,0.2234,0.2106,0.202,0.215,0.2146,0.2138,0.213,0.1884,0.1882,0.188,0.1878,0,0.1461,0.1478,0.1498,0.1533,0.1565,0.1604,0.1657,0.1693,0.1789,0.1856,0.1954,0.2014,0.2131,0.2105,0.2156,0.2131,0.2091,0.2067,0.2253,0.1883,0.1851,0.1845,0.1847,0.186,0.1862,0.1863,0.1864,0.1865,0.1438,0.1447,0.1475,0.1502,0.1539,0.1569,0.1573,0.1634,0.1693,0.1765,0.187,0.1912,0.1975,0.1986,0.1939,0.1915,0.2042,0.1939,0.1942,0.1948,0.1899,0.187,0.1873,0.1875,0.1877,0.1878,0.1879,0,0.1408,0.1426,0.1445,0.147,0.1479,0.1524,0.1564,0.1548,0.1566,0.1665,0.1725,0.1641,0.1658,0.1707,0.1663,0.1681,0.1625,0.1595,0.1505,0.1527,0.1546,0.1471,0.1334,0.1332,0.133,0.1328,0,0,0.1396,0.1395,0.1403,0.14,0.1419,0.141,0.1413,0.1397,0.1442,0.1438,0.1463,0.1604,0.1695,0.1491,0.1482,0.1402,0.1441,0.1348,0.1799,0.1718,0.1733,0.1776,0.1692,0,0,0,0,0]},{"header":{"parameterUnit":"m.s-1","parameterCategory":2,"la1":30.2991,"la2":30.254,"lo1":-89.0895,"lo2":-89.0444,"dy":0.0017,"dx":0.0017,"nx":28,"ny":28,"refTime":"2023-09-01T09:00:00:Z","depth":"2","parameterNumber":3,"parameterNumberName":"V-component_of_CURRENTS"},"data":[0,0,0,0,0,0,0,0,0,0,0,0,0,0,0,0,0,0,0,0,0,0,0,0,0,0,0,0,0,0,0,0,0,0,0,0,0,0,0,0,0,0,0,0,0,0,0,0,0,0,0,0,0,0,0,0,0,0,-0.0037,-0.0038,0,-0.0084,-0.0084,-0.0085,-0.0121,-0.0122,-0.0122,-0.0122,-0.0198,-0.02,-0.0201,0,0,0,0,0,0,0,0,0,0,0,0,0,-0.0002,-0.0002,-0.0037,-0.0038,-0.0038,-0.0083,-0.0084,-0.0085,-0.0121,-0.0122,-0.0122,-0.0122,-0.0197,-0.0199,-0.0201,0,0,0,0,0,0,0,0,0,0,0,0,0,-0.003,-0.0002,-0.0037,-0.0062,-0.0064,-0.0083,-0.0084,-0.0085,-0.0121,-0.0122,-0.0122,-0.0123,-0.0197,-0.0199,-0.0202,-0.0208,0,0,-0.021,-0.0211,0,0,0,0,0,0,0,0,-0.0028,-0.0031,-0.0057,-0.006,-0.0063,-0.0097,-0.0099,-0.0127,-0.0121,-0.01,-0.0122,-0.0123,-0.0166,-0.0171,-0.0179,-0.0211,-0.0214,-0.021,-0.0211,-0.0212,-0.0213,0,0,0,0,0,0,0,-0.0026,-0.0029,-0.0056,-0.0058,-0.0061,-0.0078,-0.0082,-0.0105,-0.0131,-0.0102,-0.0105,-0.0109,-0.0168,-0.0176,-0.0181,-0.0216,-0.021,-0.0212,-0.0214,-0.0215,-0.0261,-0.026,0,0,0,0,0,0,-0.0018,-0.0027,-0.0054,-0.0057,-0.0046,-0.0078,-0.0083,-0.0086,-0.013,-0.0137,-0.0108,-0.011,-0.0172,-0.0178,-0.0184,-0.0196,-0.0212,-0.0215,-0.0216,-0.0261,-0.0261,-0.026,0,0,0,0,0,0,-0.0017,-0.002,-0.0053,-0.0043,-0.0048,-0.0078,-0.0081,-0.0086,-0.0097,-0.0134,-0.0142,-0.0113,-0.0173,-0.018,-0.0203,-0.02,-0.0216,-0.0218,-0.0261,-0.0261,-0.0261,-0.022,0,0,0,0,0,0,-0.0016,-0.0019,-0.0018,-0.0042,-0.0049,-0.0061,-0.0081,-0.0087,-0.0098,-0.0102,-0.0141,-0.0149,-0.0174,-0.0199,-0.0205,-0.0203,-0.022,-0.0262,-0.0261,-0.0261,-0.0221,-0.0218,-0.0215,0,0,0,0,0,-0.0014,-0.001,-0.0017,-0.0021,-0.0046,-0.0061,-0.0065,-0.0088,-0.0098,-0.01,-0.0126,-0.0147,-0.02,-0.02,-0.0208,-0.0207,-0.0262,-0.0261,-0.0261,-0.0223,-0.0218,-0.0215,0,0,0,0,0,0,0.0007,-0.0014,-0.0023,-0.0024,-0.004,-0.0067,-0.0069,-0.0085,-0.0106,-0.0109,-0.0145,-0.0154,-0.0171,-0.0194,-0.0193,-0.0218,-0.0234,-0.0234,-0.0202,-0.0198,-0.0195,-0.0186,-0.0222,0,0,0,0,0,0.0014,0.0011,-0.0011,-0.0012,-0.0017,-0.0042,-0.005,-0.0065,-0.0087,-0.0097,-0.0124,-0.0151,-0.0174,-0.0189,-0.0211,-0.0226,-0.0246,-0.023,-0.0226,-0.0223,-0.022,-0.0249,-0.0248,-0.0258,-0.0258,-0.0258,0,0,0.0021,0.0011,0.0009,-0.0007,-0.002,-0.0023,-0.0048,-0.0057,-0.006,-0.0102,-0.0113,-0.014,-0.0174,-0.019,-0.02,-0.0209,-0.0229,-0.0223,-0.022,-0.0218,-0.0248,-0.0247,-0.0246,-0.0258,-0.0258,-0.0258,0,0,0.0039,0.0028,0.0032,0.0023,0.0008,-0.0007,-0.0007,-0.0031,-0.0043,-0.0057,-0.0086,-0.0111,-0.0144,-0.0169,-0.0187,-0.0178,-0.0208,-0.0184,-0.0164,-0.0192,-0.0191,-0.0191,-0.0205,-0.0206,-0.0185,-0.0185,-0.0185,0,0.005,0.0052,0.0032,0.0035,0.0032,0.0004,0.0009,-0.0005,-0.0033,-0.004,-0.0054,-0.0103,-0.0134,-0.0158,-0.0156,-0.0171,-0.0187,-0.0177,-0.0187,-0.0188,-0.0188,-0.0202,-0.0204,-0.0183,-0.0184,-0.0184,-0.0184,0,0.007,0.0072,0.0076,0.007,0.0064,0.0065,0.0044,0.0037,0.0021,0.0002,-0.0021,-0.0064,-0.0095,-0.0108,-0.0132,-0.015,-0.0158,-0.0177,-0.0197,-0.0185,-0.02,-0.0203,-0.018,-0.0181,-0.0182,-0.0182,0,0,0.0093,0.009,0.0091,0.0099,0.0084,0.0084,0.0081,0.0069,0.0071,0.0037,0.0032,-0.0016,-0.0042,-0.0063,-0.0098,-0.0126,-0.0143,-0.015,-0.0153,-0.0161,-0.0193,-0.0194,-0.0198,-0.0165,-0.0165,-0.0165,-0.0199,0,0.0115,0.0133,0.0122,0.0141,0.015,0.0128,0.013,0.0115,0.0098,0.0087,0.0037,0.0019,-0.0024,-0.0037,-0.0073,-0.0124,-0.015,-0.0131,-0.0205,-0.0207,-0.0208,-0.0201,-0.018,-0.0208,-0.0202,-0.0202,-0.0203,0,0.0137,0.0148,0.0169,0.0181,0.0183,0.0187,0.0189,0.0185,0.0159,0.0145,0.0111,0.0077,0.003,-0.0006,-0.0091,-0.0076,-0.0129,-0.0171,-0.0174,-0.0192,-0.0214,-0.0221,-0.0214,-0.0208,-0.0207,-0.0207,-0.0207,0,0.0167,0.0182,0.0202,0.0205,0.021,0.0216,0.0217,0.0202,0.0214,0.018,0.0188,0.0119,0.0098,0.0015,-0.007,-0.0082,-0.0156,-0.0186,-0.0236,-0.0237,-0.0242,-0.0242,-0.0244,-0.0244,-0.0244,-0.0244,-0.0244,0,0.0195,0.0213,0.0219,0.0231,0.0259,0.0248,0.0275,0.0262,0.0264,0.0289,0.0219,0.023,0.0103,0.0049,-0.0047,-0.0142,-0.0141,-0.0229,-0.0247,-0.0226,-0.0224,-0.0246,-0.0245,-0.0245,-0.0245,-0.0245,-0.0244,0,0.0221,0.0223,0.0253,0.0267,0.0274,0.0293,0.0324,0.0348,0.0337,0.0368,0.0365,0.0318,0.0242,0.0121,-0.0004,-0.0097,-0.0199,-0.0233,-0.0191,-0.0204,-0.0268,-0.0265,-0.0299,-0.03,-0.03,-0.03,-0.0301,0,0.0235,0.0251,0.0282,0.0306,0.0314,0.0344,0.0371,0.0378,0.0416,0.0433,0.046,0.0404,0.0378,0.0193,0.0014,-0.0153,-0.018,-0.024,-0.0268,-0.026,-0.0275,-0.0271,-0.0268,-0.0256,-0.0256,-0.0256,-0.0255,0,0.0266,0.0274,0.0299,0.035,0.0385,0.0433,0.0476,0.0523,0.0542,0.0576,0.0618,0.06,0.0425,0.0261,0.0026,-0.0088,-0.0217,-0.0243,-0.0247,-0.0243,-0.0221,-0.0235,-0.0233,-0.0254,-0.0254,-0.0254,-0.0255,-0.0255,0.0289,0.0315,0.035,0.0399,0.0448,0.0521,0.0572,0.0632,0.0704,0.0759,0.0739,0.0718,0.0519,0.0226,0.0017,-0.0204,-0.0201,-0.0278,-0.0277,-0.0277,-0.0264,-0.0244,-0.0278,-0.0278,-0.0279,-0.0279,-0.0279,0,0.0321,0.0351,0.04,0.0465,0.053,0.0549,0.0645,0.0701,0.0796,0.084,0.0868,0.0703,0.0509,0.028,-0.0049,-0.0247,-0.0266,-0.0302,-0.0286,-0.0286,-0.0285,-0.0273,-0.0289,-0.029,-0.0291,-0.0291,0,0,0.0339,0.0389,0.0415,0.0522,0.0575,0.0671,0.0733,0.0811,0.0869,0.0918,0.0914,0.0869,0.0593,0.0358,0.0084,-0.0104,-0.0148,-0.0138,-0.0107,-0.0056,-0.0053,-0.0248,-0.0225,0,0,0,0,0]}],[{"header":{"parameterUnit":"m.s-1","parameterCategory":2,"la1":30.2991,"la2":30.254,"lo1":-89.0895,"lo2":-89.0444,"dy":0.0017,"dx":0.0017,"nx":28,"ny":28,"refTime":"2023-09-01T09:00:00:Z","depth":"4","parameterNumber":2,"parameterNumberName":"U-component_of_CURRENTS"},"data":[0,0,0,0,0,0,0,0,0,0,0,0,0,0,0,0,0,0,0,0,0,0,0,0,0,0,0,0,0,0,0,0,0,0,0,0,0,0,0,0,0,0,0,0,0,0,0,0,0,0,0,0,0,0,0,0,0,0,0.0899,0.09,0,0.0941,0.0942,0.0942,0.0974,0.0974,0.0975,0.0975,0.1011,0.1012,0.1012,0,0,0,0,0,0,0,0,0,0,0,0,0,0.0841,0.0841,0.0899,0.09,0.09,0.0941,0.0942,0.0942,0.0974,0.0974,0.0975,0.0975,0.1011,0.1012,0.1012,0,0,0,0,0,0,0,0,0,0,0,0,0,0.0871,0.0842,0.0899,0.0922,0.0925,0.0941,0.0942,0.0942,0.0973,0.0974,0.0975,0.0975,0.1011,0.1012,0.1012,0.1003,0,0,0.1015,0.1015,0,0,0,0,0,0,0,0,0.0869,0.0873,0.0918,0.0921,0.0924,0.0955,0.0935,0.0963,0.0973,0.0953,0.0975,0.0976,0.0992,0.0995,0.0999,0.1005,0.1007,0.1015,0.1015,0.1016,0.1016,0,0,0,0,0,0,0,0.0867,0.0871,0.0914,0.0919,0.0922,0.0929,0.0934,0.094,0.0967,0.0955,0.0958,0.0965,0.0994,0.0998,0.1,0.1007,0.1015,0.1016,0.1016,0.1016,0.1075,0.1076,0,0,0,0,0,0,0.0865,0.0869,0.0912,0.0915,0.09,0.093,0.0935,0.0942,0.0967,0.0972,0.0965,0.0967,0.0996,0.0999,0.1001,0.105,0.1016,0.1017,0.1017,0.1074,0.1075,0.1076,0,0,0,0,0,0,0.0864,0.0869,0.0911,0.0895,0.0901,0.0931,0.0938,0.0943,0.0971,0.0975,0.0979,0.099,0.0997,0.1,0.1028,0.1049,0.1017,0.1018,0.1073,0.1074,0.1076,0.111,0,0,0,0,0,0,0.0862,0.0868,0.0882,0.0895,0.0902,0.0936,0.0938,0.0943,0.0974,0.0977,0.0998,0.1,0.0997,0.1027,0.1029,0.105,0.1018,0.1071,0.1073,0.1075,0.1108,0.1113,0.1117,0,0,0,0,0,0.086,0.0874,0.0882,0.0888,0.0917,0.0937,0.0942,0.0963,0.0974,0.099,0.1006,0.1001,0.1041,0.1029,0.1031,0.1052,0.107,0.1073,0.1075,0.1106,0.1112,0.1117,0,0,0,0,0,0,0.0856,0.0879,0.0888,0.091,0.093,0.0944,0.0964,0.0976,0.1,0.1011,0.1013,0.1017,0.1049,0.1047,0.1033,0.1076,0.1056,0.1059,0.1078,0.1084,0.1089,0.1088,0.1019,0,0,0,0,0,0.0861,0.0881,0.0899,0.092,0.0931,0.0951,0.0967,0.0982,0.1,0.1013,0.1027,0.1042,0.1056,0.1068,0.1078,0.1101,0.1104,0.1117,0.1122,0.1126,0.1128,0.1148,0.1155,0.1084,0.1084,0.1084,0,0,0.0866,0.0882,0.0894,0.0922,0.094,0.0956,0.0963,0.0994,0.1011,0.1012,0.1047,0.106,0.1066,0.1092,0.1106,0.1097,0.1151,0.1129,0.1132,0.1132,0.1152,0.1158,0.1164,0.1086,0.1086,0.1085,0,0,0.0877,0.0901,0.0918,0.0935,0.0968,0.0979,0.0992,0.1019,0.1038,0.1069,0.1074,0.1102,0.1124,0.1132,0.1137,0.1174,0.1175,0.1183,0.1208,0.1228,0.1234,0.1239,0.1265,0.1273,0.1186,0.1186,0.1186,0,0.0883,0.0904,0.0927,0.0945,0.0961,0.099,0.1007,0.1028,0.1061,0.1078,0.1088,0.1132,0.114,0.1166,0.1183,0.1184,0.12,0.1184,0.1234,0.1239,0.1243,0.1269,0.1277,0.1188,0.1188,0.1188,0.1188,0,0.0897,0.0922,0.0936,0.0965,0.0985,0.101,0.1035,0.1065,0.1094,0.1111,0.1155,0.1172,0.1199,0.1208,0.1209,0.1248,0.1251,0.1236,0.1217,0.1253,0.1278,0.1285,0.1191,0.119,0.119,0.1189,0,0,0.0888,0.0936,0.0943,0.0959,0.1,0.1015,0.1051,0.1085,0.1115,0.1153,0.1189,0.122,0.1241,0.1249,0.1258,0.1278,0.133,0.1279,0.1279,0.1302,0.1389,0.1326,0.1328,0.1328,0.1329,0.133,0.1398,0,0.0894,0.0927,0.095,0.0983,0.1,0.1036,0.1065,0.1102,0.114,0.1183,0.1213,0.1254,0.1253,0.1281,0.1301,0.1325,0.1349,0.1314,0.1354,0.1356,0.1292,0.1333,0.1334,0.1403,0.1405,0.1406,0.1407,0,0.0894,0.0919,0.095,0.0994,0.1006,0.1032,0.1086,0.1116,0.1177,0.121,0.1256,0.1286,0.1337,0.1327,0.1385,0.1367,0.1385,0.1397,0.1399,0.133,0.1305,0.1358,0.1419,0.1418,0.1417,0.1417,0.1416,0,0.0869,0.0917,0.0943,0.0958,0.101,0.1038,0.1073,0.1129,0.1165,0.1238,0.1281,0.133,0.1377,0.1402,0.1443,0.1423,0.1501,0.147,0.1429,0.1425,0.1445,0.1439,0.1507,0.1507,0.1507,0.1506,0.1506,0,0.0856,0.0879,0.094,0.0953,0.099,0.1032,0.108,0.1123,0.1194,0.1235,0.13,0.1344,0.1402,0.1454,0.1467,0.1479,0.1524,0.1442,0.1438,0.1461,0.1455,0.1451,0.1444,0.1509,0.1508,0.1508,0.1507,0,0.0819,0.0861,0.0892,0.0955,0.0979,0.1006,0.1084,0.1115,0.1195,0.1255,0.1289,0.138,0.1447,0.1499,0.1551,0.1511,0.1526,0.1518,0.1563,0.1559,0.1429,0.1423,0.1466,0.1465,0.1463,0.1462,0.1461,0,0.0801,0.0815,0.0885,0.0904,0.0937,0.0989,0.1021,0.1106,0.1138,0.1262,0.1283,0.1393,0.1443,0.1475,0.1523,0.1553,0.1533,0.1528,0.1451,0.1433,0.1426,0.1422,0.1417,0.1459,0.1459,0.1458,0.1458,0,0.076,0.0794,0.082,0.0864,0.0903,0.0936,0.0993,0.1014,0.1108,0.1199,0.126,0.1312,0.1388,0.143,0.148,0.1487,0.1519,0.1513,0.1514,0.1441,0.1425,0.1417,0.1415,0.1453,0.1454,0.1454,0.1454,0,0.0731,0.0737,0.0779,0.0812,0.0854,0.0867,0.0906,0.0954,0.1006,0.1143,0.1161,0.1278,0.1372,0.1399,0.1436,0.1453,0.1419,0.1356,0.1365,0.1371,0.1308,0.1271,0.1257,0,0,0,0,0,0.0698,0.0699,0.0721,0.075,0.079,0.082,0.0876,0.0917,0.1014,0.1033,0.1097,0.1166,0.1238,0.1297,0.1296,0.1385,0.1417,0.1376,0.1345,0.1426,0.1431,0.1366,0,0,0,0,0,0,0.0671,0.0692,0.07,0.0696,0.0708,0.0743,0.0777,0.0842,0.0856,0.0965,0.1013,0.1104,0.1192,0.1241,0.128,0.1298,0.1255,0.1453,0.145,0.1423,0.1428,0.1432,0.1367,0,0,0,0,0]},{"header":{"parameterUnit":"m.s-1","parameterCategory":2,"la1":30.2991,"la2":30.254,"lo1":-89.0895,"lo2":-89.0444,"dy":0.0017,"dx":0.0017,"nx":28,"ny":28,"refTime":"2023-09-01T09:00:00:Z","depth":"4","parameterNumber":3,"parameterNumberName":"V-component_of_CURRENTS"},"data":[0,0,0,0,0,0,0,0,0,0,0,0,0,0,0,0,0,0,0,0,0,0,0,0,0,0,0,0,0,0,0,0,0,0,0,0,0,0,0,0,0,0,0,0,0,0,0,0,0,0,0,0,0,0,0,0,0,0,0.0031,0.0031,0,-0.0003,-0.0003,-0.0004,-0.0023,-0.0023,-0.0023,-0.0023,-0.0073,-0.0074,-0.0075,0,0,0,0,0,0,0,0,0,0,0,0,0,0.0063,0.0063,0.0031,0.0031,0.003,-0.0003,-0.0003,-0.0004,-0.0023,-0.0023,-0.0023,-0.0023,-0.0072,-0.0074,-0.0075,0,0,0,0,0,0,0,0,0,0,0,0,0,0.0042,0.0063,0.0031,0.0017,0.0015,-0.0003,-0.0003,-0.0004,-0.0023,-0.0023,-0.0023,-0.0023,-0.0072,-0.0073,-0.0075,-0.0084,0,0,-0.0081,-0.0082,0,0,0,0,0,0,0,0,0.0043,0.0041,0.0019,0.0018,0.0016,-0.0009,-0.001,-0.0032,-0.0023,-0.0008,-0.0023,-0.0023,-0.0053,-0.0056,-0.0062,-0.0087,-0.0089,-0.0081,-0.0082,-0.0083,-0.0084,0,0,0,0,0,0,0,0.0044,0.0042,0.0018,0.0019,0.0017,0.0006,0.0003,-0.0014,-0.0029,-0.0009,-0.0011,-0.0015,-0.0054,-0.006,-0.0063,-0.009,-0.0081,-0.0083,-0.0084,-0.0085,-0.0124,-0.0124,0,0,0,0,0,0,0.0049,0.0043,0.0019,0.0017,0.0029,0.0006,0.0002,-0.0001,-0.0029,-0.0033,-0.0015,-0.0016,-0.0057,-0.0061,-0.0065,-0.007,-0.0083,-0.0085,-0.0086,-0.0124,-0.0124,-0.0124,0,0,0,0,0,0,0.005,0.0047,0.002,0.0029,0.0025,0.0005,0.0002,-0.0001,-0.0009,-0.0033,-0.0038,-0.0019,-0.0057,-0.0062,-0.0078,-0.0072,-0.0086,-0.0087,-0.0124,-0.0124,-0.0124,-0.0085,0,0,0,0,0,0,0.0051,0.0048,0.0048,0.0029,0.0024,0.0012,0.0002,-0.0002,-0.0011,-0.0013,-0.0038,-0.0043,-0.0057,-0.0075,-0.008,-0.0075,-0.0089,-0.0124,-0.0124,-0.0124,-0.0086,-0.0083,-0.0081,0,0,0,0,0,0.0052,0.0053,0.0049,0.0046,0.0025,0.0012,0.0009,-0.0005,-0.0011,-0.0013,-0.0029,-0.0042,-0.0078,-0.0077,-0.0082,-0.0078,-0.0124,-0.0124,-0.0124,-0.0087,-0.0084,-0.0081,0,0,0,0,0,0,0.0066,0.005,0.0045,0.0041,0.0029,0.0009,0.0006,-0.0004,-0.0019,-0.0019,-0.0042,-0.0048,-0.0059,-0.0076,-0.0074,-0.0089,-0.0103,-0.0104,-0.0073,-0.007,-0.0067,-0.0055,-0.009,0,0,0,0,0,0.007,0.0067,0.005,0.0047,0.0042,0.0025,0.0018,0.0009,-0.0007,-0.0013,-0.0031,-0.0049,-0.0063,-0.0072,-0.0088,-0.0098,-0.0115,-0.0099,-0.0096,-0.0094,-0.0088,-0.0108,-0.0106,-0.0123,-0.0123,-0.0123,0,0,0.0074,0.0065,0.0064,0.005,0.004,0.004,0.002,0.0012,0.0015,-0.0017,-0.002,-0.0041,-0.0064,-0.0072,-0.0079,-0.0085,-0.0099,-0.0093,-0.0091,-0.0086,-0.0107,-0.0106,-0.0104,-0.0123,-0.0123,-0.0123,0,0,0.0085,0.0075,0.0078,0.0071,0.0059,0.005,0.0049,0.0031,0.0025,0.0016,-0.0003,-0.002,-0.0044,-0.0056,-0.0065,-0.0059,-0.0084,-0.0067,-0.0043,-0.0062,-0.0061,-0.006,-0.0082,-0.0083,-0.0065,-0.0065,-0.0065,0,0.0091,0.0094,0.0077,0.008,0.0081,0.0058,0.0066,0.0056,0.0036,0.0035,0.002,-0.0011,-0.0034,-0.0039,-0.0038,-0.0052,-0.0069,-0.0051,-0.0058,-0.0058,-0.0057,-0.008,-0.0081,-0.0063,-0.0063,-0.0064,-0.0064,0,0.0106,0.011,0.0111,0.0112,0.011,0.0111,0.0099,0.0095,0.0083,0.0073,0.0061,0.0029,0.0012,-0.0,-0.0018,-0.0024,-0.0039,-0.0052,-0.0063,-0.0053,-0.0078,-0.008,-0.006,-0.0061,-0.0062,-0.0062,0,0,0.0116,0.0122,0.0123,0.0135,0.0128,0.0129,0.0135,0.0134,0.0142,0.0115,0.0121,0.0088,0.0068,0.0055,0.0027,0.0007,-0.001,-0.0019,-0.0021,-0.0035,-0.0055,-0.0067,-0.0071,-0.0024,-0.0024,-0.0025,-0.0074,0,0.0135,0.0154,0.0151,0.0174,0.0184,0.0174,0.0184,0.0181,0.0171,0.0168,0.0135,0.0125,0.009,0.008,0.0056,0.0007,-0.0014,0.0005,-0.0068,-0.007,-0.0077,-0.0074,-0.0025,-0.0076,-0.0077,-0.0078,-0.0078,0,0.0151,0.0163,0.0188,0.0212,0.0217,0.0228,0.0243,0.0248,0.0239,0.0229,0.0211,0.0184,0.0152,0.0119,0.0047,0.006,0.0008,-0.0033,-0.0036,-0.006,-0.0086,-0.009,-0.0083,-0.0082,-0.0082,-0.0082,-0.0081,0,0.0168,0.0191,0.0215,0.0222,0.0241,0.0255,0.0265,0.0267,0.0281,0.0266,0.027,0.0227,0.0203,0.0139,0.0051,0.0049,-0.0033,-0.0047,-0.0105,-0.0106,-0.0098,-0.0099,-0.0094,-0.0094,-0.0094,-0.0094,-0.0094,0,0.0186,0.0207,0.0227,0.0241,0.0276,0.028,0.0314,0.0314,0.0325,0.0343,0.0302,0.0296,0.0206,0.0148,0.0068,-0.0027,-0.0021,-0.0098,-0.0118,-0.0082,-0.008,-0.01,-0.01,-0.0096,-0.0095,-0.0095,-0.0095,0,0.0197,0.0209,0.0241,0.0271,0.0284,0.0307,0.035,0.0374,0.0375,0.0394,0.0393,0.0348,0.0265,0.0172,0.006,-0.0004,-0.0094,-0.013,-0.0084,-0.0101,-0.0159,-0.0156,-0.0193,-0.0193,-0.0194,-0.0195,-0.0195,0,0.0203,0.0219,0.0262,0.0285,0.03,0.0337,0.0367,0.0391,0.0417,0.0421,0.0431,0.0369,0.032,0.0162,0.0053,-0.0093,-0.0118,-0.0161,-0.0159,-0.0152,-0.0168,-0.0164,-0.0161,-0.0196,-0.0196,-0.0197,-0.0197,0,0.0215,0.0229,0.0254,0.03,0.0338,0.0384,0.0426,0.0451,0.0474,0.0482,0.0463,0.0385,0.029,0.0162,0.0046,-0.0061,-0.013,-0.0169,-0.0168,-0.0166,-0.0157,-0.0171,-0.0167,-0.0199,-0.0199,-0.0198,-0.0198,0,0.0221,0.0238,0.0271,0.0313,0.0362,0.041,0.0436,0.0467,0.0494,0.0502,0.0489,0.0391,0.0337,0.0178,0.007,-0.0035,-0.0064,-0.0094,-0.0098,-0.0097,-0.0058,-0.003,-0.0048,0,0,0,0,0,0.0224,0.0243,0.0282,0.0328,0.0379,0.041,0.0467,0.049,0.0514,0.0508,0.0505,0.0416,0.026,0.0191,0.0084,0.0044,-0.0092,-0.0086,-0.0131,-0.0212,-0.0209,-0.0181,0,0,0,0,0,0,0.0224,0.0257,0.0277,0.0333,0.0367,0.0427,0.0465,0.0486,0.0486,0.0492,0.0412,0.0385,0.0231,0.0318,0.0079,0.0047,0.0004,-0.0156,-0.0158,-0.0213,-0.0211,-0.0209,-0.0179,0,0,0,0,0]}]]